TimeAKST,TemperatureF,Dew PointF,Humidity,Sea Level PressureIn,VisibilityMPH,Wind Direction,Wind SpeedMPH,Gust SpeedMPH,PrecipitationIn,Events,Conditions,WindDirDegrees,DateUTC
12:53 AM,36.0,24.1,62,29.11,10.0,East,16.1,28.8,N/A,,Overcast,100,2012-12-04 09:53:00
1:53 AM,35.1,24.1,64,29.09,10.0,East,15.0,-,N/A,,Overcast,90,2012-12-04 10:53:00
3:53 AM,36.0,25.0,64,29.06,10.0,East,12.7,-,N/A,,Scattered Clouds,100,2012-12-04 12:53:00
4:53 AM,37.0,25.0,62,29.06,10.0,East,17.3,-,N/A,,Partly Cloudy,100,2012-12-04 13:53:00
5:53 AM,36.0,24.1,62,29.06,10.0,ESE,18.4,-,N/A,,Scattered Clouds,110,2012-12-04 14:53:00
6:53 AM,36.0,25.0,64,29.06,10.0,ESE,18.4,24.2,N/A,,Mostly Cloudy,110,2012-12-04 15:53:00
7:53 AM,37.0,26.1,65,29.06,10.0,ESE,13.8,-,N/A,,Mostly Cloudy,110,2012-12-04 16:53:00
8:53 AM,36.0,26.1,67,29.06,10.0,East,13.8,-,N/A,,Partly Cloudy,100,2012-12-04 17:53:00
9:53 AM,36.0,25.0,64,29.08,10.0,East,12.7,-,N/A,,Partly Cloudy,100,2012-12-04 18:53:00
10:53 AM,36.0,25.0,64,29.10,10.0,East,5.8,-,N/A,,Scattered Clouds,90,2012-12-04 19:53:00
11:53 AM,37.0,28.0,70,29.13,10.0,North,3.5,-,N/A,,Mostly Cloudy,360,2012-12-04 20:53:00
12:53 PM,37.0,28.9,73,29.16,10.0,NW,4.6,-,N/A,,Mostly Cloudy,310,2012-12-04 21:53:00
1:53 PM,35.1,30.0,82,29.18,3.0,NW,8.1,-,0.00,Snow,Light Snow,320,2012-12-04 22:53:00
2:53 PM,36.0,30.9,82,29.20,10.0,Calm,Calm,-,0.00,,Overcast,0,2012-12-04 23:53:00
3:53 PM,37.0,27.0,67,29.23,10.0,ESE,12.7,19.6,0.00,Rain,Light Rain,110,2012-12-05 00:53:00
4:53 PM,37.0,27.0,67,29.25,10.0,ESE,13.8,-,0.00,,Overcast,120,2012-12-05 01:53:00
5:53 PM,36.0,26.1,67,29.26,10.0,ESE,12.7,-,N/A,,Mostly Cloudy,120,2012-12-05 02:53:00
6:53 PM,36.0,26.1,67,29.28,10.0,ESE,16.1,-,N/A,,Mostly Cloudy,120,2012-12-05 03:53:00
7:53 PM,35.1,25.0,67,29.29,10.0,ESE,16.1,23.0,N/A,,Overcast,120,2012-12-05 04:53:00
8:53 PM,35.1,25.0,67,29.31,10.0,ESE,15.0,-,N/A,,Overcast,120,2012-12-05 05:53:00
9:53 PM,37.0,26.1,65,29.33,10.0,ESE,10.4,-,N/A,,Overcast,120,2012-12-05 06:53:00
10:53 PM,37.0,26.1,65,29.35,10.0,ESE,12.7,-,N/A,,Overcast,120,2012-12-05 07:53:00
11:53 PM,36.0,26.1,67,29.38,9.0,ESE,12.7,-,0.00,Snow,Light Snow,120,2012-12-05 08:53:00